Location: Killam
(52.7910°N, 111.8608°W)
Time: 17:22:22
(UTC+00:00)

Injun/Solrad 3 - Pass Details

Date: 17 February 2026
Orbit: 872 x 984 km, 66.8° (Epoch: 8 March)

Event Time Altitude Azimuth Distance (km) Brightness Sun altitude
Rises 04:17:32 0° 317° (NW) 3,568 11.9 -32.5°
Reaches altitude 10° 04:20:13 10° 310° (NW) 2,639 11.1 -32.9°
Maximum altitude 04:25:44 36° 246° (WSW) 1,452 9.1 -33.6°
Enters shadow 04:26:22 35° 233° (SW) 1,475 9.0 -33.7°
